カタログに戻る

KUIPER-00150

運用中通信LEO
NORAD 65770·PAYLOAD·🇺🇸 United States

打ち上げ Sep 25, 2025 から Cape Canaveral Space Force Station

Loading…

次のパス (今後24時間)

TLE

最新Source: CelesTrak SupGP

元期: Sep 14, 2026, 23:44 UTC

1 65770C 25217J   26257.98934028  .00002232  00000+0  29226-3 0  2576
2 65770  51.9002 293.5437 0000558  88.4305 241.0373 14.79919031    18

AllMySatでKUIPER-00150をリアルタイム追跡

Download on the App Store